VHWZY YWYY-YKII

Flight info

Callsign VHWZY
Flight time 0h 48m
Altitude 8000
Route THRUM DCT KII
Aircraft C208/L-SDFGR/C

Departure

Time 2026-04-25 19:20
Airport Wynyard Airport (YWYY)

Arrival

Time 2026-04-25 20:09
Airport King Island Airport (YKII)
Time Latitude Longitude Altitude Speed Heading
2026-04-25 19:01 -40.99373 145.72546 72 ft 0 kts 62°
2026-04-25 19:04 -40.99373 145.72545 72 ft 0 kts 62°
2026-04-25 19:12 -40.99375 145.72551 75 ft 4 kts 127°
2026-04-25 19:13 -40.99444 145.72556 67 ft 15 kts 186°
2026-04-25 19:13 -40.99529 145.72541 70 ft 7 kts 187°
2026-04-25 19:13 -40.99611 145.72527 70 ft 0 kts 186°
2026-04-25 19:17 -40.99649 145.72520 74 ft 13 kts 189°
2026-04-25 19:17 -40.99703 145.72632 74 ft 19 kts 102°
2026-04-25 19:18 -40.99734 145.72860 68 ft 29 kts 99°
2026-04-25 19:18 -40.99767 145.73128 66 ft 32 kts 100°
2026-04-25 19:18 -40.99805 145.73433 57 ft 39 kts 99°
2026-04-25 19:18 -40.99850 145.73794 54 ft 40 kts 99°
2026-04-25 19:19 -40.99897 145.74178 49 ft 32 kts 98°
2026-04-25 19:19 -40.99908 145.74321 49 ft 13 kts 197°
2026-04-25 19:19 -40.99907 145.74260 49 ft 0 kts 279°
2026-04-25 19:19 -40.99907 145.74257 49 ft 5 kts 279°
2026-04-25 19:20 -40.99840 145.73718 54 ft 79 kts 279°
2026-04-25 19:20 -40.99731 145.72861 206 ft 97 kts 279°
2026-04-25 19:20 -40.99592 145.71971 468 ft 103 kts 281°
2026-04-25 19:20 -40.99439 145.71014 702 ft 110 kts 279°
2026-04-25 19:21 -40.99100 145.70128 956 ft 112 kts 324°
2026-04-25 19:21 -40.97691 145.69206 1440 ft 122 kts 313°
2026-04-25 19:21 -40.97138 145.68330 1667 ft 124 kts 314°
2026-04-25 19:22 -40.96592 145.67445 1911 ft 125 kts 313°
2026-04-25 19:22 -40.96060 145.66542 2151 ft 123 kts 311°
2026-04-25 19:22 -40.95010 145.64740 2606 ft 122 kts 311°
2026-04-25 19:23 -40.94489 145.63844 2835 ft 123 kts 311°
2026-04-25 19:23 -40.93450 145.62051 3286 ft 123 kts 310°
2026-04-25 19:23 -40.92932 145.61159 3509 ft 122 kts 310°
2026-04-25 19:24 -40.92415 145.60266 3723 ft 122 kts 309°
2026-04-25 19:24 -40.91902 145.59380 3939 ft 120 kts 309°
2026-04-25 19:24 -40.90890 145.57638 4374 ft 119 kts 309°
2026-04-25 19:25 -40.89897 145.55928 4822 ft 117 kts 310°
2026-04-25 19:25 -40.89391 145.55059 5050 ft 117 kts 310°
2026-04-25 19:25 -40.88893 145.54203 5265 ft 117 kts 310°
2026-04-25 19:26 -40.88395 145.53347 5485 ft 117 kts 310°
2026-04-25 19:26 -40.87898 145.52492 5706 ft 117 kts 310°
2026-04-25 19:26 -40.87399 145.51632 5936 ft 120 kts 309°
2026-04-25 19:26 -40.86885 145.50753 6165 ft 121 kts 310°
2026-04-25 19:27 -40.86365 145.49859 6399 ft 125 kts 309°
2026-04-25 19:27 -40.86012 145.49257 6540 ft 125 kts 309°
2026-04-25 19:27 -40.85322 145.48064 6829 ft 122 kts 307°
2026-04-25 19:27 -40.84815 145.47166 7044 ft 120 kts 308°
2026-04-25 19:28 -40.84310 145.46320 7256 ft 118 kts 309°
2026-04-25 19:28 -40.83808 145.45466 7471 ft 117 kts 308°
2026-04-25 19:28 -40.83314 145.44619 7689 ft 116 kts 308°
2026-04-25 19:28 -40.82819 145.43773 7906 ft 116 kts 308°
2026-04-25 19:29 -40.82310 145.42906 7981 ft 126 kts 308°
2026-04-25 19:29 -40.81753 145.41959 7994 ft 135 kts 308°
2026-04-25 19:29 -40.81161 145.40951 7990 ft 142 kts 308°
2026-04-25 19:29 -40.80551 145.39907 7992 ft 146 kts 308°
2026-04-25 19:30 -40.79928 145.38840 7986 ft 148 kts 308°
2026-04-25 19:30 -40.79295 145.37756 7987 ft 149 kts 308°
2026-04-25 19:30 -40.78657 145.36666 7988 ft 150 kts 308°
2026-04-25 19:30 -40.78017 145.35571 7985 ft 151 kts 308°
2026-04-25 19:31 -40.77375 145.34474 7985 ft 151 kts 308°
2026-04-25 19:31 -40.76731 145.33374 7984 ft 152 kts 308°
2026-04-25 19:31 -40.76087 145.32274 7986 ft 152 kts 308°
2026-04-25 19:31 -40.75442 145.31173 7984 ft 151 kts 308°
2026-04-25 19:32 -40.74798 145.30075 7983 ft 152 kts 308°
2026-04-25 19:32 -40.74149 145.28968 7980 ft 154 kts 308°
2026-04-25 19:32 -40.73492 145.27849 7977 ft 154 kts 308°
2026-04-25 19:32 -40.73271 145.27472 7977 ft 154 kts 308°
2026-04-25 19:33 -40.72182 145.25616 7978 ft 155 kts 308°
2026-04-25 19:33 -40.71523 145.24492 7973 ft 154 kts 308°
2026-04-25 19:33 -40.70867 145.23377 7970 ft 153 kts 308°
2026-04-25 19:33 -40.70215 145.22267 7968 ft 153 kts 308°
2026-04-25 19:34 -40.69565 145.21162 7967 ft 153 kts 308°
2026-04-25 19:34 -40.68916 145.20059 7965 ft 152 kts 308°
2026-04-25 19:34 -40.68267 145.18955 7965 ft 152 kts 308°
2026-04-25 19:34 -40.67619 145.17855 7962 ft 152 kts 308°
2026-04-25 19:35 -40.66970 145.16752 7955 ft 151 kts 308°
2026-04-25 19:35 -40.66331 145.15667 7953 ft 149 kts 308°
2026-04-25 19:35 -40.65698 145.14590 7954 ft 148 kts 308°
2026-04-25 19:35 -40.65070 145.13525 7957 ft 147 kts 308°
2026-04-25 19:36 -40.64446 145.12466 7955 ft 146 kts 308°
2026-04-25 19:36 -40.63822 145.11407 7952 ft 146 kts 308°
2026-04-25 19:36 -40.63197 145.10348 7956 ft 146 kts 308°
2026-04-25 19:36 -40.62584 145.09308 7957 ft 146 kts 308°
2026-04-25 19:37 -40.61954 145.08241 7953 ft 146 kts 308°
2026-04-25 19:37 -40.61331 145.07187 7951 ft 146 kts 308°
2026-04-25 19:37 -40.60714 145.06143 7949 ft 146 kts 308°
2026-04-25 19:37 -40.60092 145.05091 7951 ft 146 kts 308°
2026-04-25 19:38 -40.59470 145.04038 7950 ft 146 kts 308°
2026-04-25 19:38 -40.58847 145.02984 7949 ft 146 kts 308°
2026-04-25 19:38 -40.58226 145.01935 7950 ft 145 kts 308°
2026-04-25 19:38 -40.57606 145.00886 7953 ft 145 kts 308°
2026-04-25 19:39 -40.56984 144.99836 7949 ft 146 kts 308°
2026-04-25 19:39 -40.56362 144.98785 7949 ft 146 kts 308°
2026-04-25 19:39 -40.55739 144.97733 7950 ft 146 kts 308°
2026-04-25 19:39 -40.55115 144.96681 7953 ft 146 kts 308°
2026-04-25 19:40 -40.54693 144.95970 7946 ft 146 kts 308°
2026-04-25 19:40 -40.53868 144.94577 7945 ft 146 kts 308°
2026-04-25 19:40 -40.53242 144.93523 7948 ft 146 kts 308°
2026-04-25 19:40 -40.52617 144.92469 7946 ft 146 kts 308°
2026-04-25 19:41 -40.51991 144.91415 7947 ft 146 kts 308°
2026-04-25 19:41 -40.51364 144.90359 7947 ft 146 kts 308°
2026-04-25 19:41 -40.50739 144.89306 7947 ft 146 kts 308°
2026-04-25 19:41 -40.50527 144.88950 7946 ft 146 kts 308°
2026-04-25 19:42 -40.49411 144.87298 7944 ft 146 kts 314°
2026-04-25 19:42 -40.48712 144.86337 7948 ft 145 kts 313°
2026-04-25 19:42 -40.48014 144.85378 7947 ft 145 kts 313°
2026-04-25 19:42 -40.47549 144.84744 7947 ft 146 kts 313°
2026-04-25 19:43 -40.46608 144.83465 7943 ft 146 kts 313°
2026-04-25 19:43 -40.45905 144.82511 7939 ft 145 kts 313°
2026-04-25 19:43 -40.45201 144.81556 7938 ft 145 kts 313°
2026-04-25 19:43 -40.44735 144.80925 7938 ft 145 kts 313°
2026-04-25 19:44 -40.44034 144.79974 7940 ft 145 kts 313°
2026-04-25 19:44 -40.43328 144.79017 7940 ft 146 kts 313°
2026-04-25 19:44 -40.42622 144.78061 7940 ft 147 kts 313°
2026-04-25 19:44 -40.41910 144.77097 7941 ft 147 kts 313°
2026-04-25 19:45 -40.40968 144.75822 7938 ft 146 kts 313°
2026-04-25 19:45 -40.40261 144.74865 7942 ft 146 kts 313°
2026-04-25 19:45 -40.39784 144.74219 7941 ft 146 kts 313°
2026-04-25 19:45 -40.39081 144.73269 7937 ft 145 kts 313°
2026-04-25 19:46 -40.38378 144.72318 7939 ft 145 kts 313°
2026-04-25 19:46 -40.37678 144.71371 7942 ft 145 kts 313°
2026-04-25 19:46 -40.36974 144.70421 7941 ft 145 kts 313°
2026-04-25 19:46 -40.36271 144.69472 7940 ft 145 kts 313°
2026-04-25 19:47 -40.35568 144.68522 7941 ft 145 kts 313°
2026-04-25 19:47 -40.34868 144.67577 7937 ft 145 kts 313°
2026-04-25 19:47 -40.34166 144.66629 7935 ft 145 kts 313°
2026-04-25 19:47 -40.33466 144.65684 7938 ft 145 kts 313°
2026-04-25 19:48 -40.32766 144.64740 7936 ft 145 kts 314°
2026-04-25 19:48 -40.32062 144.63793 7935 ft 145 kts 314°
2026-04-25 19:48 -40.31362 144.62847 7940 ft 144 kts 313°
2026-04-25 19:48 -40.30661 144.61904 7937 ft 144 kts 314°
2026-04-25 19:49 -40.29972 144.60976 7938 ft 144 kts 314°
2026-04-25 19:49 -40.29498 144.60338 7938 ft 144 kts 314°
2026-04-25 19:49 -40.28572 144.59090 7938 ft 144 kts 314°
2026-04-25 19:49 -40.27871 144.58148 7938 ft 144 kts 313°
2026-04-25 19:50 -40.26470 144.56263 7940 ft 144 kts 314°
2026-04-25 19:50 -40.25774 144.55327 7937 ft 144 kts 314°
2026-04-25 19:50 -40.25077 144.54391 7939 ft 143 kts 314°
2026-04-25 19:51 -40.24376 144.53448 7890 ft 146 kts 314°
2026-04-25 19:51 -40.23667 144.52497 7794 ft 145 kts 314°
2026-04-25 19:51 -40.22972 144.51559 7688 ft 142 kts 314°
2026-04-25 19:51 -40.22286 144.50635 7585 ft 141 kts 314°
2026-04-25 19:52 -40.21607 144.49722 7483 ft 140 kts 314°
2026-04-25 19:52 -40.20930 144.48814 7385 ft 139 kts 314°
2026-04-25 19:52 -40.20258 144.47912 7286 ft 139 kts 314°
2026-04-25 19:52 -40.19586 144.47012 7186 ft 137 kts 314°
2026-04-25 19:53 -40.18930 144.46130 7085 ft 135 kts 314°
2026-04-25 19:53 -40.18277 144.45255 6987 ft 134 kts 314°
2026-04-25 19:53 -40.17629 144.44385 6888 ft 133 kts 315°
2026-04-25 19:53 -40.16980 144.43517 6791 ft 133 kts 315°
2026-04-25 19:54 -40.16335 144.42653 6692 ft 133 kts 315°
2026-04-25 19:54 -40.15689 144.41789 6599 ft 133 kts 315°
2026-04-25 19:54 -40.15042 144.40923 6502 ft 133 kts 315°
2026-04-25 19:54 -40.14612 144.40349 6432 ft 133 kts 315°
2026-04-25 19:55 -40.13749 144.39194 6299 ft 133 kts 315°
2026-04-25 19:55 -40.13099 144.38326 6199 ft 133 kts 315°
2026-04-25 19:55 -40.12452 144.37461 6094 ft 133 kts 315°
2026-04-25 19:55 -40.11804 144.36597 5994 ft 133 kts 315°
2026-04-25 19:56 -40.11156 144.35731 5896 ft 133 kts 315°
2026-04-25 19:56 -40.10515 144.34875 5799 ft 134 kts 315°
2026-04-25 19:56 -40.09854 144.33993 5693 ft 134 kts 315°
2026-04-25 19:56 -40.09213 144.33137 5595 ft 134 kts 315°
2026-04-25 19:57 -40.08564 144.32272 5496 ft 133 kts 315°
2026-04-25 19:57 -40.07906 144.31394 5388 ft 133 kts 315°
2026-04-25 19:57 -40.07258 144.30530 5295 ft 133 kts 315°
2026-04-25 19:57 -40.06611 144.29668 5203 ft 133 kts 315°
2026-04-25 19:58 -40.05970 144.28815 5102 ft 133 kts 316°
2026-04-25 19:58 -40.05322 144.27950 5006 ft 133 kts 316°
2026-04-25 19:58 -40.04674 144.27088 4908 ft 133 kts 316°
2026-04-25 19:58 -40.04025 144.26224 4809 ft 134 kts 316°
2026-04-25 19:59 -40.03376 144.25360 4709 ft 133 kts 316°
2026-04-25 19:59 -40.02726 144.24495 4607 ft 133 kts 316°
2026-04-25 19:59 -40.02077 144.23633 4506 ft 133 kts 316°
2026-04-25 19:59 -40.01433 144.22775 4401 ft 129 kts 316°
2026-04-25 20:00 -40.00821 144.21957 4293 ft 124 kts 316°
2026-04-25 20:00 -40.00425 144.21428 4224 ft 122 kts 316°
2026-04-25 20:00 -39.99635 144.20376 4086 ft 121 kts 316°
2026-04-25 20:00 -39.99048 144.19597 4006 ft 119 kts 316°
2026-04-25 20:01 -39.98115 144.17830 3770 ft 120 kts 297°
2026-04-25 20:01 -39.97780 144.16837 3643 ft 119 kts 299°
2026-04-25 20:01 -39.97442 144.15857 3522 ft 118 kts 299°
2026-04-25 20:02 -39.97101 144.14879 3393 ft 119 kts 299°
2026-04-25 20:02 -39.96759 144.13900 3269 ft 119 kts 299°
2026-04-25 20:02 -39.96417 144.12921 3147 ft 119 kts 299°
2026-04-25 20:02 -39.96073 144.11934 3026 ft 120 kts 300°
2026-04-25 20:03 -39.95723 144.10940 2900 ft 121 kts 300°
2026-04-25 20:03 -39.95376 144.09949 2770 ft 120 kts 300°
2026-04-25 20:03 -39.95029 144.08955 2664 ft 121 kts 300°
2026-04-25 20:03 -39.94678 144.07952 2531 ft 122 kts 300°
2026-04-25 20:04 -39.94320 144.06936 2415 ft 124 kts 300°
2026-04-25 20:04 -39.93962 144.05913 2297 ft 124 kts 300°
2026-04-25 20:04 -39.93603 144.04891 2161 ft 123 kts 300°
2026-04-25 20:04 -39.93251 144.03884 2037 ft 121 kts 300°
2026-04-25 20:05 -39.92899 144.02882 1900 ft 121 kts 301°
2026-04-25 20:05 -39.92550 144.01889 1781 ft 120 kts 300°
2026-04-25 20:05 -39.92204 144.00899 1653 ft 120 kts 300°
2026-04-25 20:05 -39.91855 143.99907 1525 ft 121 kts 300°
2026-04-25 20:06 -39.91504 143.98914 1406 ft 121 kts 299°
2026-04-25 20:06 -39.91157 143.97917 1274 ft 121 kts 297°
2026-04-25 20:06 -39.90838 143.96906 1273 ft 118 kts 296°
2026-04-25 20:06 -39.90534 143.95944 1330 ft 110 kts 297°
2026-04-25 20:07 -39.90225 143.95027 1309 ft 112 kts 298°
2026-04-25 20:07 -39.89925 143.94153 1285 ft 103 kts 297°
2026-04-25 20:07 -39.89627 143.93312 1208 ft 103 kts 299°
2026-04-25 20:07 -39.89317 143.92480 1110 ft 93 kts 301°
2026-04-25 20:08 -39.89067 143.91776 945 ft 82 kts 297°
2026-04-25 20:08 -39.88838 143.91099 820 ft 83 kts 299°
2026-04-25 20:08 -39.88582 143.90389 664 ft 89 kts 301°
2026-04-25 20:08 -39.88290 143.89655 480 ft 95 kts 301°
2026-04-25 20:09 -39.88003 143.88891 214 ft 94 kts 300°
2026-04-25 20:09 -39.87744 143.88165 111 ft 76 kts 298°
2026-04-25 20:09 -39.87586 143.87728 113 ft 37 kts 294°
2026-04-25 20:09 -39.87490 143.87461 114 ft 32 kts 292°
2026-04-25 20:10 -39.87393 143.87183 115 ft 34 kts 292°
2026-04-25 20:10 -39.87371 143.87119 115 ft 13 kts 113°
2026-04-25 20:10 -39.87428 143.87294 115 ft 28 kts 117°
2026-04-25 20:10 -39.87533 143.87577 115 ft 40 kts 114°
2026-04-25 20:11 -39.87662 143.87945 112 ft 47 kts 114°
2026-04-25 20:11 -39.87747 143.88205 107 ft 27 kts 112°
2026-04-25 20:11 -39.87847 143.88286 112 ft 23 kts 202°
2026-04-25 20:11 -39.87881 143.88268 114 ft 0 kts 206°
2026-04-25 20:12 -39.87884 143.88266 112 ft 4 kts 206°
2026-04-25 20:12 -39.87924 143.88232 113 ft 5 kts 275°
2026-04-25 20:12 -39.87928 143.88211 115 ft 0 kts 229°